Gold Country Challenge - Toss 23 - 55 Miles Milton

Station: Milton CA - T Race

Distance: 54.57 Miles    

Release: 18-Oct-2020 07:45

Weather Release: Sun/Lt Haze. Smoky to SE    Arrival: Sunny/Upper 80s Today

Wind at Release: Calm/Lt. Var     Wind at Arrival: Light E

Temp at Release: 64°    Temp at Arrival: °

Lofts: 101

Birds: 341

Clocked: 341

All released together. 5 birds left home. Next toss 55 Miles
Drops Pos Breeder Pigeon Name Color Sex Ent Arrival Speed To Win Elg PdChampAOC
1 B S Lofts - CA 13322-AU20-JEDD 232 & 26-2 BC H 1 08:56:24.10 1345.111 00:00:00 Yes
2 Gomez Loft - CA 2631-AU20-CHP BBWF H 1 08:56:27.50 1344.045 00:00:03 Yes
3 Double J Loft Of Tx. - TX 0106-AU20-WACO 263 X 1611 BC H 1 08:56:28.00 1343.888 00:00:04 Yes
4 F-R-E-L Syndicate - CA 16303-AU20-AA Whell's 303 BC H 1 08:56:30.90 1342.980 00:00:07 Yes
5 Sierra Ranch - CA 0251-AU20-SR Golden Rain BC H 1 08:56:35.90 1341.417 00:00:12 Yes
6 Emmalyn & Carelyn Loft - CA 0701-AU20-CEYX ~ CEYX 701 ~ BC H 1 08:56:39.40 1340.325 00:00:15 Yes
7 Winwin Loft - CA 7304-AU20-JEDD BB H 1 08:56:42.00 1339.515 00:00:18 Yes
8 Gomez Loft - CA 2641-AU20-CHP BB H 2 08:56:42.90 1339.234 00:00:19 Yes
9 Oddiebeng Loft - CA 9670-AU20-FOYS DC H 1 08:56:44.90 1338.612 00:00:21 Yes
10 John V. Partridge - CA 2115-AU20-PASO King Bond BB H 1 08:56:45.90 1338.301 00:00:22 Yes
11 Valhalla Loft - CA 2018-AU20-WSJ BCWF H 1 08:56:46.40 1338.146 00:00:22 Yes
12 Sierra Ranch - CA 2040-AU20-SR Gold finger BB H 2 08:56:47.40 1337.835 00:00:23 Yes
13 Wonderwings Lofts - CA 2040-AU20-MAN Lightning BBWF H 1 08:56:48.20 1337.587 00:00:24 Yes
14 Sierra Ranch - CA 0239-AU20-SR Goldie SMK H 3 08:56:52.30 1336.315 00:00:28 Yes
15 Bieche-Stevenson - CA 0297-AU20-BIE BB H 1 08:56:53.20 1336.036 00:00:29 Yes
16 Sparks Trio Syn - NV 0314-AU20-RENO BC H 1 08:56:53.90 1335.820 00:00:30 Yes
17 Pellizzari Loft - CA 1003-AU20-WSJ BC H 1 08:56:54.30 1335.696 00:00:30 Yes
18 Dud/Tx Mx/Ramp - TX 9468-AU20-AA BB H 1 08:56:54.80 1335.541 00:00:31 Yes
19 Stelling Loft - NM 0079-AU20-JHS BB H 1 08:56:56.00 1335.170 00:00:32 Yes
20 Double Diamond Tack & Feed - CA 2021-AU20-HANG Double D BB H 1 08:56:56.50 1335.015 00:00:32 Yes
21 Genesis Syndicate Loft - AZ 0575-AU20-GENS BB H 1 08:56:57.10 1334.829 00:00:33 Yes
22 Big Game Loft - CA 0336-AU20-EAV BC H 1 08:56:58.20 1334.489 00:00:34 Yes
23 Kfly Racing Pigeon Loft - ID 2007-AU20-KFLY Mr. San Peppy X Poco Lena BC H 1 08:56:59.30 1334.150 00:00:35 Yes
24 PNWC - ID 1201-AU20-IDA Pair# J15 BB H 1 08:56:59.90 1333.964 00:00:36 Yes
25 PNWC - ID 0032-AU20-PNWC Pair# 13 BC H 2 08:57:00.30 1333.841 00:00:36 Yes
26 Callahan Loft - MO 0954-AU20-AA WHIT H 1 08:57:00.70 1333.717 00:00:37 Yes
27 Skylinerpl.Com - UT 35770-AU20-JEDD "Golden Kaasboer" BBWF H 1 08:57:01.60 1333.439 00:00:38 Yes
28 John & Omelio - NM 20065-AU20-NMRP BB H 1 08:57:01.90 1333.347 00:00:38 Yes
29 Marengo Creek Farms - GA 3513-AU20-MCF BB H 1 08:57:02.90 1333.038 00:00:39 Yes
30 Stark Loft - CA 2004-AU20-HANG Gold Rush BBPD C 1 08:57:03.20 1332.946 00:00:39 Yes
31 Denis Eastwood - CA 2109-AU20-HANG BB H 1 08:57:04.30 1332.607 00:00:40 Yes
32 H & H Flying Circus - CA 0304-AU20-ML BC H 1 08:57:05.90 1332.114 00:00:42 Yes
33 Stark Loft - CA 2010-AU20-HANG Prospector BBSP C 2 08:57:07.00 1331.775 00:00:43 Yes
34 Skylinerpl.Com - UT 35880-AU20-JEDD "Algarve Girl" BBSP H 2 08:57:07.80 1331.529 00:00:44 Yes
35 Cloux Loft - CO 20715-AU20-FH BB H 1 08:57:09.60 1330.976 00:00:45 Yes
36 Crazy Al & Chris Melucci - CO 15705-AU20-AA DCWF H 1 08:57:10.70 1330.638 00:00:47 Yes
37 Racing Pigeon Mall - WA 1078-AU20-RPM BB H 1 08:57:12.40 1330.115 00:00:48 Yes
38 House Of Paine - CA 0248-AU20-HOP 95872x59132 SLT H 1 08:57:12.70 1330.023 00:00:49 Yes
39 Double Diamond Tack & Feed - CA 2022-AU20-HANG Lee BBWF H 2 08:57:13.20 1329.870 00:00:49 Yes
40 Watson & Williams - NV 6948-AU20-JEDD SLT H 1 08:57:14.00 1329.624 00:00:50 Yes
41 R & D Racing 2 - ON 4407-AU20-AA BC H 1 08:57:15.30 1329.226 00:00:51 Yes
42 Dud/Tx Mx/Ramp - TX 20128-AU20-PUEB BC H 2 08:57:16.80 1328.766 00:00:53 Yes
42 Sierra Ranch - CA 0254-AU20-SR Gold Nugget BBSP H 4 08:57:16.80 1328.766 00:00:53 Yes
44 Euro Dead - CA 29156-AU20-JEDD DV-849 J-30413 BB H 1 08:57:17.60 1328.521 00:00:53 Yes
44 Peters - GA 0029-AU20-PETE BLACK JACK DC H 1 08:57:17.60 1328.521 00:00:53 Yes
46 Igor & Sons Loft - OR 0228-AU20-OTC BC H 1 08:57:18.60 1328.215 00:00:54 Yes
47 Marengo Creek Farms - GA 3538-AU20-MCF BB H 2 08:57:19.00 1328.092 00:00:55 Yes
48 Oddiebeng Loft - CA 9669-AU20-FOYS BC H 2 08:57:19.50 1327.939 00:00:55 Yes
49 Wonderwings Lofts - CA 2042-AU20-MAN Bolt BB H 2 08:57:20.10 1327.756 00:00:56 Yes
50 Al Shulman - CA 2109-AU20-WSJ BB H 1 08:57:25.20 1326.197 00:01:01 Yes
51 White Arrow Loft - IL 0567-AU20-LCC BB H 1 08:57:27.80 1325.404 00:01:04 Yes
52 Christopher Loft - UT 20120-AU20-GS BB H 1 08:57:29.40 1324.917 00:01:05 Yes
53 A-Lo Loft/Nemelka - UT 0011-AU20-NRPL Argenton X 8013 LC C 1 08:57:34.20 1323.456 00:01:10 Yes
54 A-Lo Loft/Nemelka - UT 0029-AU20-ALOL ☯️☯️☯️ BB H 2 08:57:37.10 1322.575 00:01:13 Yes
55 Bieu Tran - CA 0058-AU20-HJ BB H 1 08:57:38.70 1322.090 00:01:15 Yes
56 Partridge Family Loft - CA 2227-AU20-PASO BC H 1 08:57:40.10 1321.665 00:01:16 Yes
57 Sierra Ranch - CA 0247-AU20-SR Pot of gold BCWF H 5 08:57:42.20 1321.029 00:01:18 Yes
58 Portland Loft - OR 2514-AU20-PNW BC H 1 08:57:45.60 1320.000 00:01:21 Yes
59 Callahan Loft - MO 0938-AU20-AA BB H 2 08:57:46.10 1319.849 00:01:22 Yes
60 PNWC - ID 0034-AU20-PNWC Pair# 7 BBWF H 3 08:57:47.10 1319.547 00:01:23 Yes
61 Denis Eastwood - CA 2110-AU20-HANG BB H 2 08:57:48.70 1319.063 00:01:25 Yes
62 A-Lo Loft/Nemelka - UT 0007-AU20-NRPL Debacker X Splendiferous BB C 3 08:57:50.40 1318.550 00:01:26 Yes
63 Loft By Augustine - KS 0121-AU20-SWK Monopolizer BBWF H 1 08:57:53.60 1317.586 00:01:29 Yes
64 Tapia Lofts - NM 21294-CU20-OSH 18003/902 BBSP H 1 08:57:57.60 1316.382 00:01:33 Yes
65 F-R-E-L Syndicate - CA 7016-AU20-AA Francis 016 BB H 2 08:58:01.10 1315.330 00:01:37 Yes
66 Double J Loft Of Tx. - TX 0105-AU20-WACO 263 X 1611 BC H 2 08:58:04.10 1314.430 00:01:40 Yes
67 Racing Pigeon Mall - WA 1008-AU20-RPM BB H 2 08:58:04.60 1314.280 00:01:40 Yes
68 Sports House Pigeons - CA 5501-AU20-JEDD BB H 1 08:58:04.90 1314.190 00:01:41 Yes
69 Marengo Creek Farms - GA 3525-AU20-MCF BBWF H 3 08:58:05.30 1314.070 00:01:41 Yes
70 White Arrow Loft - IL 0560-AU20-LCC MYPD H 2 08:58:05.70 1313.950 00:01:42 Yes
71 Bob Niemeyer - CA 1046-AU20-AUB BB H 1 08:58:06.20 1313.801 00:01:42 Yes
72 Sugaronni Loft - CA 25500-AU20-FOYS BB H 1 08:58:06.80 1313.621 00:01:43 Yes
73 Prout's Loft - CA 0478-AU20-PROU Shortface BB H 1 08:58:07.30 1313.471 00:01:43 Yes
74 Stark Loft - CA 2008-AU20-HANG Blue Gold BB C 3 08:58:07.90 1313.292 00:01:44 Yes
75 Lowies Loft - ID 0817-AU20-LOWI BB H 1 08:58:08.90 1312.992 00:01:45 Yes
75 Marengo Creek Farms - GA 3524-AU20-MCF BB H 4 08:58:08.90 1312.992 00:01:45 Yes
77 Dads Loft - CA 20305-AU20-LAKE BC H 1 08:58:10.30 1312.574 00:01:46 Yes
78 F-R-E-L Syndicate - CA 7015-AU20-AA Francis 015 BB H 3 08:58:11.90 1312.095 00:01:48 Yes
79 American Star Racing Pigeons - CA 0115-AU20-ASTR BB H 1 08:58:12.50 1311.916 00:01:48 Yes
80 A P C Loft - TX 20109-AU20-APC BB H 1 08:58:13.50 1311.618 00:01:49 Yes
81 G & J Lofts - CA 0089-AU20-GJ Mr. Gumption BB C 1 08:58:14.10 1311.439 00:01:50 Yes
82 Skylinerpl.Com - UT 35819-AU20-JEDD "Troy's Girl" SLTW H 3 08:58:14.50 1311.319 00:01:50 Yes
83 Zhengloft - FL 0169-IF20-ZHEN BB H 1 08:58:14.80 1311.230 00:01:51 Yes
84 Zhengloft - FL 0104-IF20-ZHEN BBSP H 2 08:58:16.90 1310.603 00:01:53 Yes
85 Crazy Al & Chris Melucci - CO 15703-AU20-AA BC H 2 08:58:18.00 1310.276 00:01:54 Yes
86 Kereru Whare - CA 1103-AU20-FSC BC H 1 08:58:18.50 1310.127 00:01:54 Yes
86 Perfection Loft - KS 13049-AU20-AA BBWF H 1 08:58:18.50 1310.127 00:01:54 Yes
88 Just Lucky - CA 0334-AU20-HAY BC H 1 08:58:18.80 1310.037 00:01:55 Yes
89 John Hedderson - CA 0052-AU20-HEDD 6855x6853b BC H 1 08:58:19.40 1309.859 00:01:55 Yes
90 John Gutierrez - NM 0229-AU20-GUTZ 931/Dyk BBSP H 1 08:58:19.80 1309.740 00:01:56 Yes
91 PNWC - ID 1209-AU20-IDA Pair# J12 BB H 4 08:58:20.10 1309.650 00:01:56 Yes
92 White Arrow Loft - IL 0559-AU20-LCC MYPD H 3 08:58:20.60 1309.501 00:01:56 Yes
93 Stark Loft - CA 2015-AU20-HANG Rose Gold RSMK H 4 08:58:22.60 1308.907 00:01:58 Yes
94 A P C Loft - TX 20139-AU20-APC BB H 2 08:58:23.30 1308.698 00:01:59 Yes
95 B S Lofts - CA 13312-AU20-JEDD 232 & 26-1 BB H 2 08:58:23.60 1308.609 00:01:59 Yes
96 Perfection Loft - KS 13047-AU20-AA BB H 2 08:58:24.10 1308.461 00:02:00 Yes
97 White Arrow Loft - IL 0575-AU20-LCC BB H 4 08:58:24.90 1308.223 00:02:01 Yes
98 Terry-M-Loft - NV 0122-AU20-RENO BC H 1 08:58:25.20 1308.134 00:02:01 Yes
99 Sparks Trio Syn - NV 0317-AU20-RENO BB H 2 08:58:26.00 1307.897 00:02:02 Yes
100 American Star Racing Pigeons - CA 0116-AU20-ASTR BB H 2 08:58:30.70 1306.503 00:02:07 Yes

There are 337 bird records

Note: These Race Results are unofficial and subject to change until verified by the Race Committee and declared final.